Location: Observatoire de Paris
(48.8363°N, 2.3365°E)
Time: 13:48:44
(UTC+01:00)

METEOR M2 - Visible Passes

Search period start: 20 September 2021 00:00
Search period end: 30 September 2021 00:00
Orbit: 818 x 827 km, 98.5° (Epoch: 20 September)

Date Brightness Start Highest point End Pass type
(mag) Time Alt. Az. Time Alt. Az. Time Alt. Az.
20 Sep ? 20:14:02 10° SSW 20:18:53 35° W 20:23:47 10° NNW visible
21 Sep ? 19:53:40 10° S 19:58:51 50° W 20:04:04 10° NNW visible
22 Sep ? 19:33:31 10° S 19:38:51 73° WSW 19:44:14 10° NNW visible
22 Sep ? 21:18:30 10° W 21:19:59 11° W 21:21:29 10° WNW visible
23 Sep ? 19:13:35 10° SSE 19:18:56 80° ENE 19:24:19 10° NNW visible
23 Sep ? 20:56:24 10° SW 20:59:45 17° W 21:03:07 10° NW visible
24 Sep ? 20:35:19 10° SW 20:39:35 24° W 20:43:53 10° NW visible
25 Sep ? 20:14:38 10° SSW 20:19:29 34° W 20:24:21 10° NNW visible
26 Sep ? 19:54:16 10° S 19:59:26 49° W 20:04:39 10° NNW visible
27 Sep ? 19:34:06 10° S 19:39:26 71° WSW 19:44:49 10° NNW visible
27 Sep ? 21:19:18 10° W 21:20:35 11° W 21:21:53 10° WNW visible
28 Sep ? 19:14:10 10° SSE 19:19:30 81° ENE 19:24:54 10° NNW visible
28 Sep ? 20:57:04 10° SW 21:00:21 16° W 21:03:39 10° NW visible
29 Sep ? 18:54:25 10° SSE 18:59:38 57° ENE 19:04:54 10° N visible
29 Sep ? 20:35:57 10° SW 20:40:10 24° W 20:44:26 10° NW visible
